Location: Newark
(25.4297°S, 49.2719°W)
Time: 10:04:40
(UTC+00:00)

Vanguard 1 Rocket - Pass Details

Date: 26 November 2019
Orbit: 650 x 4226 km, 34.3° (Epoch: 14 December)

Event Time Altitude Azimuth Distance (km) Brightness Sun altitude
Rises 20:07:19 0° 251° (WSW) 7,831 13.7 21.2°
Reaches altitude 10° 20:12:18 10° 249° (WSW) 7,077 14.1 20.1°
Maximum altitude 20:39:01 80° 160° (SSE) 4,101 10.9 14.3°
Drops below altitude 10° 20:59:44 10° 73° (ENE) 5,777 10.9 9.9°
Sets 21:03:16 0° 71° (ENE) 6,420 11.0 9.1°
